BRITE-PL2 (HEWELIUSZ)

Last updated on Tue Jul 01 2025 00:03:31 GMT+0000 (Coordinated Universal Time)

1 40119U 14049B 25181.26825730 .00001095 00000+0 11180-3 0 9991 2 40119 97.8921 286.5499 0014353 190.7177 169.3738 14.92632691588915
UTC large
Height (km)
Speed (km/s)
/
Latitude / Longitude
Inclination (degrees)
Orbital Period (minutes)
Azimuth
Elevation
Range (km)
Doppler Factor

Next 0 passes for location: London (51.5072 / 0.1276)

Sorry there are no passes over London.